[[{"header":{"parameterUnit":"m.s-1","parameterCategory":1,"la1":30.2992,"la2":30.254,"lo1":-89.0895,"lo2":-89.0443,"dy":0.0025,"dx":0.0025,"nx":19,"ny":19,"refTime":"2026-05-21T09:00:00:Z","depth":0,"parameterNumber":2,"parameterNumberName":"U-component_of_WINDS"},"data":[0,0,0,-0.0263,-0.0266,-0.0423,-0.0424,-0.062,-0.0622,0,0,0,0,0,0,0,0,0,0,0,-0.0206,-0.0206,-0.0262,-0.0266,-0.0423,-0.0424,-0.062,-0.0622,0,0,0,0,0,0,0,0,0,0,0,-0.0205,-0.0206,-0.0207,-0.0267,-0.0423,-0.0424,-0.062,-0.0504,0,0,0,0,0,0,0,0,0,0,-0.0353,-0.0288,-0.0206,-0.0207,-0.0267,-0.0423,-0.0424,-0.0499,-0.0512,-0.0544,0,-0.0564,0,-0.0595,-0.0634,-0.0635,0,0,0,-0.0276,-0.0277,-0.0329,-0.0207,-0.0269,-0.0423,-0.0355,-0.0506,-0.052,-0.0561,-0.0567,-0.0575,-0.0599,-0.0635,-0.0636,-0.0777,-0.0777,0,0,-0.0267,-0.023,-0.0319,-0.0337,-0.0304,-0.035,-0.036,-0.0515,-0.0522,-0.0568,-0.0579,-0.0602,-0.0636,-0.0638,-0.0776,-0.0777,0,0,0,-0.0236,-0.0223,-0.0271,-0.0329,-0.0357,-0.0354,-0.0366,-0.0515,-0.0533,-0.0582,-0.0604,-0.0637,-0.064,-0.0776,-0.0777,-0.0747,0,0,0,-0.0231,-0.0205,-0.0267,-0.0246,-0.0354,-0.0436,-0.0362,-0.0523,-0.0541,-0.0603,-0.0637,-0.0641,-0.0776,-0.0776,-0.0747,-0.074,0,0,0,-0.0199,-0.0201,-0.0219,-0.0243,-0.0309,-0.0435,-0.0462,-0.0528,-0.0555,-0.0635,-0.0642,-0.0776,-0.0776,-0.0748,-0.0741,-0.0767,0,0,0,-0.0156,-0.0193,-0.0218,-0.027,-0.0307,-0.0413,-0.0462,-0.0544,-0.0609,-0.0638,-0.0776,-0.0777,-0.0748,-0.0741,-0.0767,-0.0781,-0.0782,0,0,-0.0183,-0.0195,-0.0229,-0.0256,-0.0346,-0.0392,-0.0483,-0.0581,-0.0627,-0.0726,-0.073,-0.0747,-0.0741,-0.0767,-0.0806,-0.0807,0,0,0,-0.0225,-0.0249,-0.0281,-0.0338,-0.041,-0.0475,-0.0562,-0.06,-0.0685,-0.0667,-0.0765,-0.0762,-0.0779,-0.0788,-0.0789,-0.0807,-0.0779,-0.0778,-0.0778,-0.021,-0.0261,-0.0322,-0.0393,-0.0449,-0.0539,-0.0592,-0.0659,-0.0698,-0.0721,-0.075,-0.0767,-0.0776,-0.0777,-0.0795,-0.0762,-0.0762,-0.0762,-0.0762,-0.0254,-0.0297,-0.0346,-0.0421,-0.048,-0.0547,-0.0638,-0.0664,-0.074,-0.0749,-0.0766,-0.0771,-0.0776,-0.0795,-0.076,-0.0761,-0.0761,-0.0761,-0.0761,-0.025,-0.0279,-0.032,-0.041,-0.0475,-0.055,-0.0619,-0.0671,-0.0721,-0.0738,-0.0777,-0.0778,-0.0786,-0.0753,-0.0753,-0.0753,-0.0753,-0.0753,-0.0753,-0.0228,-0.0276,-0.0324,-0.0405,-0.045,-0.0516,-0.061,-0.0658,-0.0726,-0.0759,-0.076,-0.0799,-0.0765,-0.0756,-0.0754,-0.0754,-0.0754,-0.0754,-0.0754,-0.0254,-0.0256,-0.033,-0.0374,-0.0476,-0.054,-0.0605,-0.0699,-0.0748,-0.0782,-0.0818,-0.0784,-0.0803,-0.0802,-0.0795,-0.0804,-0.0804,-0.0804,-0.0804,-0.025,-0.0263,-0.0351,-0.042,-0.0494,-0.0561,-0.0651,-0.0727,-0.0807,-0.0842,-0.0849,-0.0844,-0.0841,-0.0862,-0.086,-0.0854,-0.0878,-0.0878,-0.0878,-0.027,-0.0293,-0.0355,-0.0426,-0.0511,-0.0585,-0.0672,-0.0756,-0.0848,-0.0883,-0.0871,-0.0868,-0.0861,-0.0855,-0.0887,-0.0884,-0.0874,0,0]},{"header":{"parameterUnit":"m.s-1","parameterCategory":1,"la1":30.2992,"la2":30.254,"lo1":-89.0895,"lo2":-89.0443,"dy":0.0025,"dx":0.0025,"nx":19,"ny":19,"refTime":"2026-05-21T09:00:00:Z","depth":0,"parameterNumber":3,"parameterNumberName":"V-component_of_WINDS"},"data":[0,0,0,2.4466,2.4466,2.4456,2.4456,2.4462,2.4463,0,0,0,0,0,0,0,0,0,0,0,2.4483,2.4483,2.4466,2.4466,2.4456,2.4456,2.4462,2.4463,0,0,0,0,0,0,0,0,0,0,0,2.4482,2.4483,2.4484,2.4466,2.4456,2.4456,2.4462,2.4463,0,0,0,0,0,0,0,0,0,0,2.4469,2.4498,2.4483,2.4484,2.4466,2.4456,2.4456,2.4462,2.4463,2.4476,0,2.4492,0,2.4478,2.4464,2.4464,0,0,0,2.4456,2.4498,2.4483,2.4484,2.4466,2.4456,2.4458,2.4462,2.4463,2.4476,2.4492,2.4492,2.4478,2.4465,2.4465,2.4575,2.4576,0,0,2.4457,2.4488,2.4483,2.4484,2.4488,2.4458,2.4458,2.4462,2.4481,2.4492,2.4492,2.4478,2.4465,2.4465,2.4574,2.4576,0,0,0,2.4465,2.4489,2.4473,2.4484,2.4481,2.4458,2.4457,2.4481,2.4473,2.4491,2.4478,2.4465,2.4465,2.4573,2.4575,2.4653,0,0,0,2.4465,2.4493,2.4474,2.4493,2.4481,2.4481,2.4477,2.4473,2.4472,2.4478,2.4465,2.4465,2.4572,2.4574,2.4649,2.4685,0,0,0,2.4479,2.4495,2.4498,2.4495,2.4491,2.448,2.4472,2.4472,2.4465,2.4464,2.4466,2.4571,2.4574,2.4645,2.4678,2.4722,0,0,0,2.4502,2.4569,2.45,2.4569,2.4492,2.4529,2.4472,2.4499,2.4508,2.4465,2.4572,2.4575,2.4643,2.4674,2.4718,2.4763,2.4786,0,0,2.4604,2.4583,2.4621,2.4558,2.4616,2.4528,2.4597,2.4576,2.4548,2.4567,2.457,2.465,2.4678,2.4721,2.4902,2.492,0,0,0,2.4664,2.4691,2.47,2.471,2.4696,2.4685,2.465,2.4642,2.4657,2.4565,2.4677,2.4693,2.4717,2.4737,2.4752,2.477,2.4586,2.4586,2.4585,2.4853,2.4812,2.4871,2.4829,2.4839,2.4801,2.4805,2.4787,2.4744,2.4771,2.4777,2.4892,2.4917,2.4928,2.4947,2.4799,2.4799,2.4799,2.4799,2.4997,2.5029,2.4968,2.5004,2.496,2.4989,2.4954,2.4922,2.4942,2.4885,2.4904,2.4844,2.4949,2.4963,2.4805,2.4804,2.4803,2.4803,2.4802,2.5115,2.5123,2.5112,2.512,2.5131,2.5085,2.5106,2.5066,2.5027,2.5046,2.5046,2.5044,2.5036,2.5049,2.505,2.505,2.505,2.5051,2.5051,2.5242,2.5226,2.525,2.5238,2.5238,2.5232,2.5193,2.5191,2.5179,2.5147,2.5147,2.5099,2.4967,2.4934,2.5057,2.5056,2.5055,2.5054,2.5054,2.5402,2.5358,2.5395,2.5394,2.5376,2.5388,2.5335,2.5334,2.5327,2.5338,2.5286,2.5195,2.517,2.5158,2.513,2.5296,2.5296,2.5296,2.5296,2.5501,2.5484,2.551,2.5511,2.5508,2.5463,2.5503,2.5472,2.5434,2.5426,2.5396,2.5356,2.5345,2.5326,2.531,2.5283,2.5484,2.5485,2.5485,2.5595,2.5576,2.5618,2.558,2.5562,2.5547,2.5582,2.5584,2.5532,2.5492,2.5418,2.541,2.5345,2.5326,2.5285,2.5261,2.5211,0,0]}]]